Wetbulb
53.57 53.73 53.44 53.84 54.24 53.86 53.98 53.82 53.94 53.96 54.12 54.41 55.05 55.59 55.76 56.05 55.03 50.38 44.47 49.94 53.75 60.17 60.38 49.06 47.43 45.89 47.72 44.49 46.29 45.44 36.58 34.86 38.60 40.71 42.73 45.67 45.65 48.88 51.07 50.46 51.82 54.68 55.79 57.65 57.51
53.16 53.21 53.37 53.62 53.62 53.93 53.70 53.70 53.73 53.83 54.07 54.39 54.69 55.27 55.62 55.86 49.91 47.35 53.43 59.05 60.66 63.01 51.07 47.36 43.27 45.96 41.93 43.19 43.72 40.74 35.45 37.53 42.36 43.16 43.18 44.77 45.01 46.53 48.23 48.31 48.93 50.64 54.33 57.61 57.50
52.83 52.99 52.94 53.15 53.43 53.54 53.73 53.41 53.34 53.88 54.09 54.34 54.14 54.67 55.29 54.35 46.35 50.37 62.80 60.88 63.79 63.13 47.87 48.59 49.38 48.20 39.81 40.32 40.73 39.43 37.56 41.09 42.97 44.81 45.26 44.88 45.12 47.31 46.97 45.90 47.88 48.81 51.49 54.96 55.81
53.37 53.03 53.16 53.29 53.08 52.93 52.99 53.51 53.33 53.60 53.83 54.10 54.12 54.43 55.53 50.08 40.06 50.19 65.02 62.53 64.65 53.71 49.56 50.91 48.32 40.63 35.32 37.75 40.10 36.49 42.03 42.64 43.95 45.34 43.67 44.28 46.49 45.57 46.51 47.08 49.97 51.19 53.17 55.22 54.96
52.75 52.86 52.94 52.94 52.91 52.87 52.59 52.78 53.38 53.55 53.65 53.87 53.89 54.31 49.87 42.94 45.77 52.20 65.08 63.78 56.85 51.73 49.43 48.63 45.29 42.62 39.01 38.30 39.44 37.66 40.26 42.67 44.45 43.83 43.18 45.37 44.18 44.51 45.23 48.41 49.69 52.79 53.69 53.64 53.08
52.96 52.70 52.52 52.86 52.89 52.86 52.78 52.79 53.37 54.31 53.63 53.78 53.81 54.91 47.44 35.64 45.71 57.24 56.92 55.92 51.94 49.46 50.76 49.42 46.61 44.93 39.77 38.73 37.76 40.55 40.44 41.45 42.28 42.51 41.95 41.97 43.63 43.66 45.62 48.20 48.82 48.88 49.10 50.44 53.53
52.82 52.69 52.57 52.50 52.53 52.69 52.71 53.70 54.50 54.33 53.85 54.39 54.74 53.77 46.45 39.68 51.53 56.36 53.82 49.82 50.94 52.35 50.22 51.04 48.52 43.44 41.68 39.49 40.70 40.75 37.50 39.73 39.58 40.98 41.19 42.96 41.31 42.43 45.83 47.35 47.12 47.44 48.28 49.13 51.35
52.71 52.52 52.33 53.10 52.61 53.29 53.76 54.15 54.29 54.44 54.93 55.24 55.72 50.53 42.12 49.43 50.97 49.87 51.68 51.62 52.25 51.55 51.13 50.54 46.62 42.58 39.94 40.26 40.15 36.75 34.75 31.09 37.84 40.87 42.51 41.68 35.95 43.26 45.78 45.19 45.27 45.87 47.04 48.63 49.71
53.04 52.48 52.38 52.65 53.02 53.15 53.33 53.91 54.58 55.16 56.04 56.99 48.91 46.07 43.05 55.62 52.89 51.97 51.97 50.58 51.76 51.80 50.67 52.75 44.95 41.02 40.74 34.97 32.18 32.88 28.88 31.45 36.37 40.76 41.05 40.18 36.79 42.32 44.66 43.85 43.71 44.58 45.20 47.00 47.19
53.68 52.86 52.27 52.46 53.00 53.62 53.69 53.81 53.68 53.66 54.75 54.76 52.63 44.38 48.29 49.38 51.61 52.10 51.16 51.86 50.41 48.66 46.04 44.38 40.08 36.78 34.42 32.37 27.27 30.10 30.92 33.62 34.35 39.18 39.49 38.19 37.58 40.81 43.21 42.88 43.30 43.17 43.82 44.80 46.40
53.60 53.00 52.67 52.19 52.52 52.84 50.23 47.86 45.35 44.86 48.12 46.07 47.42 46.08 49.99 55.17 53.17 48.40 49.80 49.19 48.51 44.56 38.27 40.31 35.32 32.59 36.15 37.21 38.44 36.95 34.93 34.44 38.14 41.46 38.90 37.87 37.90 39.82 41.88 41.59 41.66 42.77 42.88 43.67 44.76
53.41 52.94 52.52 52.46 51.84 51.89 46.85 44.94 48.72 46.30 42.43 49.06 50.14 49.46 52.31 54.26 50.01 52.34 50.02 44.52 43.06 38.38 39.29 36.40 33.09 39.07 40.66 40.43 38.65 37.29 35.27 35.00 38.42 40.90 38.37 37.98 37.30 39.66 40.74 41.02 41.83 42.98 43.43 43.69 43.57
53.21 52.98 52.88 52.63 51.83 48.33 46.62 49.35 52.70 49.22 41.08 45.07 49.34 49.12 49.89 51.71 48.46 49.76 48.62 45.52 41.09 37.97 37.28 34.43 38.33 42.75 41.07 39.16 37.89 36.99 34.88 35.35 36.08 39.01 38.89 36.39 34.40 37.38 40.51 41.44 43.20 43.67 44.20 44.38 44.31
52.99 52.76 52.54 51.68 47.05 46.57 46.56 52.10 51.01 48.80 35.65 41.58 45.44 48.88 50.20 50.28 45.35 53.64 50.68 46.63 41.40 38.45 38.27 36.64 41.32 40.26 38.78 37.99 38.64 33.36 39.45 39.30 38.03 34.42 29.57 36.58 29.82 33.75 37.91 39.05 40.98 42.32 42.23 43.00 43.80
52.60 52.88 51.92 51.46 42.14 44.67 50.45 49.83 49.53 49.05 27.50 46.64 45.83 51.77 49.61 46.15 46.29 46.82 50.18 45.92 40.84 40.45 39.43 37.57 38.32 38.06 37.26 38.84 40.37 37.13 41.04 38.57 38.02 33.32 29.09 31.86 27.14 31.76 36.82 36.57 39.68 40.58 41.94 43.04 43.72
52.30 52.34 51.40 48.04 46.04 47.82 51.13 49.45 49.04 38.30 29.71 43.99 45.03 43.95 42.95 44.69 44.73 46.48 46.82 47.38 46.27 40.01 39.36 40.18 42.20 41.04 40.57 42.64 41.66 42.21 38.34 35.90 32.32 29.72 25.04 31.60 30.22 31.76 33.50 37.25 38.60 41.17 43.16 44.89 45.34
51.84 51.22 49.44 48.38 42.31 47.41 48.78 48.28 36.99 31.78 44.56 42.17 42.30 43.73 42.29 41.68 42.65 43.24 42.16 39.72 38.02 32.06 32.70 39.35 39.70 41.56 42.99 38.18 40.58 37.86 30.73 24.02 23.21 23.41 26.72 33.52 29.98 32.80 37.05 40.28 41.13 41.17 43.15 44.19 44.10
50.22 49.53 48.92 48.41 46.73 48.97 49.35 43.17 32.96 39.69 41.15 45.43 43.79 43.92 41.02 41.71 41.87 42.60 39.91 36.64 40.49 37.86 32.69 31.18 31.81 40.15 44.13 39.54 36.47 36.17 34.23 27.36 21.58 21.50 27.49 33.82 27.57 32.50 40.01 42.29 42.91 44.01 43.98 44.64 44.08
48.64 44.06 46.68 49.57 49.55 48.55 45.40 35.57 36.40 41.95 42.74 41.76 42.56 38.56 38.28 41.34 40.19 39.57 37.85 37.98 39.85 39.16 33.01 31.34 33.21 42.96 43.97 44.23 41.89 37.32 33.56 36.92 31.15 29.71 26.32 28.74 33.07 38.83 41.25 41.37 42.84 43.30 43.90 43.14 43.92
43.90 43.87 48.48 50.02 49.93 49.01 39.72 35.93 41.14 44.42 44.96 43.49 36.39 39.19 34.61 37.65 38.44 38.51 37.39 42.64 42.49 43.56 40.81 36.42 30.15 39.60 42.21 44.10 43.96 40.43 41.42 30.48 30.11 26.06 23.47 27.31 29.41 30.00 35.35 37.85 40.88 41.54 41.53 43.01 43.87
42.30 43.62 50.56 52.76 51.04 44.14 34.89 38.35 43.02 46.53 46.08 42.56 39.79 37.84 37.80 35.68 37.21 37.30 38.66 42.42 44.71 43.21 42.92 38.11 33.24 34.40 39.23 37.86 36.90 37.33 35.48 36.82 35.50 32.65 27.67 25.75 27.08 34.98 36.90 38.08 39.23 40.76 42.75 43.67 44.05
40.32 38.73 48.59 51.66 42.71 40.17 38.57 41.15 43.84 44.14 46.18 44.25 44.21 42.10 39.45 38.46 36.46 37.02 37.87 40.43 43.90 42.89 38.91 41.36 36.60 31.11 34.87 40.66 43.07 40.86 37.07 37.04 31.33 29.71 32.62 30.86 27.14 39.89 38.66 40.66 42.01 42.39 45.03 46.20 46.78
36.18 38.03 49.11 48.41 35.76 34.93 39.18 40.70 42.80 42.03 42.40 42.61 41.21 41.46 40.32 36.45 33.29 36.64 38.80 42.49 43.52 41.53 39.89 39.43 33.96 28.42 30.41 35.01 39.20 36.75 38.19 37.15 35.55 33.36 26.55 25.05 26.58 40.11 39.73 40.85 40.79 40.52 42.75 45.08 47.07
38.13 35.95 38.79 41.48 39.87 37.11 35.89 37.50 37.99 44.09 43.03 43.05 41.65 42.00 38.60 36.09 38.24 34.38 35.72 41.33 42.32 41.65 45.27 41.98 35.72 33.54 29.03 32.16 36.01 33.95 36.19 37.41 35.49 29.95 28.56 29.16 30.71 34.89 37.16 38.43 40.01 41.91 44.63 45.86 46.75
37.31 33.82 36.95 31.61 35.45 36.76 38.36 38.27 37.03 37.64 41.68 42.44 39.62 39.04 37.24 33.30 33.69 34.06 37.89 37.88 40.48 42.55 40.58 38.36 31.33 33.05 34.65 35.49 35.67 35.32 34.71 34.68 32.16 32.23 27.53 30.50 30.35 33.25 37.95 38.76 40.97 42.58 44.89 45.67 46.07
36.25 34.96 37.94 35.94 37.83 36.43 36.88 35.54 36.34 39.16 38.25 37.58 37.23 38.43 37.53 35.92 35.82 33.34 35.65 35.57 34.54 38.78 36.75 36.20 28.74 33.55 30.68 34.19 33.56 31.44 34.03 33.81 33.22 32.59 30.88 31.91 31.61 38.47 41.32 41.93 41.37 42.17 42.43 43.03 43.59
39.67 39.27 39.74 38.83 37.54 35.71 33.63 37.44 36.64 38.17 39.50 41.20 39.74 37.15 36.00 38.00 40.10 39.07 39.36 38.75 37.33 35.67 33.96 32.03 29.74 28.22 25.45 31.01 30.81 25.72 30.50 32.68 32.88 36.15 34.85 29.86 34.90 41.15 40.07 39.09 39.50 40.50 42.02 41.46 42.40
MSLP
1018.41 1018.04 1017.73 1017.41 1017.11 1016.93 1016.80 1016.66 1016.57 1016.39 1016.17 1015.86 1015.48 1015.17 1015.04 1014.81 1014.49 1014.29 1013.40 1010.82 1010.83 1010.52 1010.52 1010.34 1010.48 1010.57 1010.64 1011.03 1011.04 1011.42 1012.61 1012.72 1011.88 1011.38 1009.69 1008.93 1008.59 1007.94 1007.05 1006.71 1005.87 1004.90 1004.63 1004.21 1004.89
1018.22 1017.79 1017.48 1017.22 1016.95 1016.70 1016.46 1016.32 1016.15 1015.96 1015.75 1015.55 1015.37 1015.10 1014.81 1014.57 1014.30 1012.92 1009.98 1009.93 1010.15 1010.40 1010.78 1010.69 1010.61 1010.59 1011.01 1011.12 1011.11 1011.48 1012.10 1011.77 1011.00 1010.52 1009.80 1009.24 1008.89 1008.38 1007.47 1006.61 1005.91 1005.35 1004.97 1004.75 1004.66
1018.06 1017.59 1017.25 1016.97 1016.72 1016.51 1016.30 1016.05 1015.94 1015.75 1015.53 1015.34 1015.17 1014.99 1014.83 1014.67 1013.88 1010.25 1008.78 1009.43 1009.90 1010.12 1010.33 1010.45 1010.40 1010.49 1010.90 1010.97 1011.08 1011.31 1011.51 1011.01 1010.46 1010.14 1009.60 1009.00 1008.76 1008.30 1007.56 1006.92 1006.13 1005.58 1005.20 1005.25 1005.30
1017.90 1017.48 1017.10 1016.80 1016.55 1016.36 1016.19 1015.98 1015.78 1015.60 1015.39 1015.20 1015.05 1014.86 1014.61 1014.62 1012.53 1009.11 1008.57 1009.15 1009.71 1010.17 1010.43 1010.45 1010.47 1010.72 1011.04 1011.09 1010.86 1011.17 1010.85 1010.63 1009.90 1009.35 1009.37 1008.84 1008.33 1007.97 1007.58 1006.74 1006.20 1005.78 1005.24 1005.06 1005.31
1017.72 1017.29 1016.93 1016.60 1016.29 1016.07 1015.93 1015.78 1015.59 1015.41 1015.21 1015.02 1014.91 1014.72 1014.50 1013.79 1011.20 1008.90 1009.02 1009.32 1009.76 1010.03 1010.20 1010.28 1010.34 1010.60 1010.85 1010.76 1010.73 1010.74 1010.47 1010.11 1009.61 1009.41 1009.16 1008.54 1008.07 1007.41 1006.91 1006.54 1005.90 1005.49 1005.09 1005.35 1005.71
1017.50 1017.05 1016.71 1016.34 1016.00 1015.74 1015.55 1015.40 1015.19 1015.04 1014.91 1014.79 1014.69 1014.55 1014.31 1012.52 1009.11 1008.87 1009.16 1009.64 1009.83 1010.20 1010.23 1010.16 1010.17 1010.29 1010.52 1010.46 1010.61 1010.50 1010.31 1009.93 1009.34 1008.90 1008.70 1008.48 1007.56 1007.22 1006.67 1006.42 1006.29 1005.77 1005.34 1005.36 1005.67
1017.23 1016.85 1016.41 1016.04 1015.77 1015.52 1015.28 1015.01 1014.79 1014.67 1014.59 1014.49 1014.46 1014.40 1013.74 1010.47 1009.02 1008.98 1009.18 1009.45 1009.48 1009.59 1009.79 1009.72 1009.65 1009.97 1010.29 1010.46 1010.55 1010.53 1010.55 1010.03 1009.54 1008.97 1008.60 1008.04 1007.53 1006.84 1006.44 1006.68 1006.48 1006.15 1005.75 1005.25 1005.28
1016.98 1016.56 1016.14 1015.73 1015.35 1015.07 1014.79 1014.58 1014.44 1014.36 1014.30 1014.22 1014.32 1014.32 1012.46 1009.52 1009.12 1009.25 1009.40 1009.34 1009.17 1009.31 1009.32 1009.11 1009.33 1009.67 1010.20 1010.51 1010.73 1011.03 1011.06 1010.68 1009.75 1009.07 1008.38 1008.37 1007.53 1007.21 1006.59 1006.44 1006.26 1006.23 1006.11 1005.82 1005.25
1016.83 1016.38 1015.94 1015.49 1015.06 1014.70 1014.33 1014.10 1013.99 1013.98 1014.05 1014.03 1014.29 1013.88 1011.28 1009.14 1009.05 1008.41 1008.79 1008.97 1008.88 1009.03 1009.02 1008.96 1009.27 1010.07 1010.51 1011.37 1012.04 1012.12 1011.88 1011.08 1010.14 1008.89 1008.51 1008.43 1007.91 1007.56 1007.23 1007.34 1006.82 1006.23 1006.02 1005.85 1005.40
1016.71 1016.15 1015.66 1015.23 1014.84 1014.41 1013.95 1013.56 1013.58 1013.72 1014.00 1014.04 1013.61 1013.50 1010.47 1008.68 1007.96 1007.85 1008.17 1008.58 1008.99 1009.10 1009.19 1009.40 1010.31 1010.90 1011.79 1012.40 1012.75 1012.43 1012.04 1011.28 1010.52 1009.11 1008.63 1008.35 1008.12 1007.85 1007.29 1007.16 1006.82 1006.48 1005.89 1006.10 1005.90
1016.55 1015.97 1015.42 1014.93 1014.55 1014.25 1013.86 1013.55 1013.77 1013.76 1013.31 1012.04 1011.29 1010.49 1009.05 1007.94 1007.19 1007.52 1007.75 1008.55 1009.20 1009.38 1009.88 1010.28 1011.24 1011.48 1011.64 1011.93 1011.82 1011.97 1011.92 1011.40 1010.21 1009.09 1009.14 1008.51 1008.11 1007.72 1007.32 1006.99 1006.88 1006.65 1006.48 1005.98 1005.59
1016.25 1015.73 1015.17 1014.56 1014.18 1013.99 1014.16 1013.47 1012.35 1012.21 1011.49 1010.05 1009.47 1009.29 1008.41 1008.18 1008.17 1007.41 1007.44 1008.38 1008.93 1009.62 1010.19 1011.03 1010.96 1010.63 1010.96 1011.34 1011.60 1011.60 1011.56 1010.96 1010.00 1009.07 1009.10 1008.25 1007.93 1007.61 1007.20 1006.88 1006.73 1006.70 1006.46 1006.12 1005.79
1016.02 1015.34 1014.75 1014.10 1013.77 1013.72 1013.47 1012.23 1011.17 1011.41 1011.32 1008.84 1008.23 1008.00 1007.75 1008.03 1007.92 1007.30 1007.50 1007.85 1008.76 1009.67 1010.20 1010.77 1009.99 1009.87 1010.37 1010.30 1010.76 1010.59 1010.73 1010.30 1009.97 1009.03 1008.70 1008.40 1007.99 1007.52 1007.00 1006.68 1006.37 1006.03 1005.81 1005.66 1005.53
1015.95 1015.19 1014.47 1013.89 1013.69 1013.17 1012.36 1010.93 1010.89 1010.95 1010.90 1008.46 1007.31 1006.46 1006.88 1007.19 1006.89 1006.20 1006.59 1007.44 1008.38 1009.02 1009.88 1010.26 1009.14 1009.52 1009.55 1009.72 1009.76 1009.85 1009.44 1009.41 1009.53 1009.60 1009.38 1008.72 1007.34 1007.55 1007.06 1006.63 1006.29 1005.79 1005.66 1005.23 1004.88
1015.63 1015.00 1014.30 1014.15 1013.53 1012.68 1011.00 1010.68 1010.58 1010.86 1009.95 1007.14 1006.24 1005.33 1005.98 1006.57 1005.99 1005.67 1005.92 1006.88 1007.67 1008.35 1009.36 1008.77 1008.52 1008.63 1008.82 1008.38 1008.51 1008.69 1008.50 1009.10 1009.31 1009.54 1009.54 1009.45 1008.95 1007.13 1006.74 1006.49 1005.78 1005.50 1005.09 1004.61 1004.28
1015.07 1014.47 1013.93 1013.57 1013.64 1011.22 1010.62 1010.58 1010.61 1011.24 1008.85 1006.57 1005.75 1005.82 1006.37 1006.34 1006.05 1005.77 1006.13 1006.55 1007.06 1008.28 1008.60 1008.04 1007.76 1007.94 1007.36 1007.29 1007.64 1008.00 1008.47 1008.92 1009.37 1009.99 1009.86 1009.43 1009.02 1007.33 1006.97 1005.99 1005.17 1004.55 1004.26 1004.03 1003.96
1014.40 1013.48 1013.41 1012.56 1011.75 1010.87 1010.60 1010.86 1011.36 1010.42 1008.01 1007.20 1006.59 1006.22 1006.25 1006.46 1006.32 1006.36 1006.56 1007.03 1007.46 1008.25 1008.29 1007.90 1007.69 1007.29 1007.09 1007.23 1007.22 1007.87 1008.90 1010.20 1010.37 1010.66 1009.43 1008.94 1008.35 1007.00 1006.28 1005.47 1004.84 1004.36 1003.97 1003.52 1003.53
1013.78 1012.56 1011.98 1011.66 1011.00 1010.80 1010.85 1011.32 1011.03 1009.47 1008.46 1007.78 1007.24 1006.71 1006.69 1006.79 1006.86 1006.81 1006.93 1007.29 1007.17 1007.88 1008.26 1008.21 1007.64 1006.95 1006.52 1006.71 1007.00 1007.52 1008.49 1009.99 1009.94 1010.45 1009.67 1009.30 1007.92 1006.61 1005.89 1005.16 1004.53 1004.22 1004.02 1003.59 1003.50
1013.44 1012.11 1011.75 1010.68 1010.90 1011.01 1011.26 1011.33 1010.35 1009.64 1009.09 1008.33 1007.75 1007.56 1007.73 1007.83 1007.81 1007.76 1007.73 1007.52 1007.38 1007.63 1008.22 1008.29 1007.63 1006.83 1006.55 1006.39 1006.70 1007.33 1008.12 1008.63 1009.64 1010.10 1009.73 1009.14 1007.91 1006.64 1005.82 1005.84 1005.31 1005.15 1004.58 1004.07 1003.18
1014.24 1012.93 1011.35 1010.54 1010.57 1010.83 1011.39 1011.16 1010.52 1010.13 1009.45 1008.92 1008.99 1009.03 1009.25 1009.09 1008.80 1008.69 1008.18 1007.56 1007.51 1007.83 1008.35 1008.79 1008.52 1007.81 1007.17 1006.75 1006.63 1007.08 1007.88 1009.20 1010.46 1010.95 1010.71 1009.26 1008.55 1007.53 1006.83 1006.46 1005.92 1005.59 1005.40 1005.14 1004.34
1014.41 1013.01 1011.52 1010.84 1010.91 1011.57 1012.03 1011.63 1010.87 1010.53 1010.14 1009.93 1010.08 1010.29 1010.44 1010.46 1010.20 1009.69 1008.72 1008.15 1007.79 1008.12 1008.43 1009.10 1009.61 1008.93 1008.22 1007.89 1007.47 1007.81 1008.46 1009.90 1011.16 1011.78 1011.27 1010.33 1008.31 1007.08 1006.74 1006.43 1006.03 1005.68 1005.29 1005.11 1005.04
1015.45 1013.74 1011.64 1010.93 1012.03 1012.96 1012.90 1012.46 1011.76 1011.16 1010.82 1010.60 1010.81 1011.08 1011.14 1011.24 1010.85 1010.48 1009.34 1008.88 1008.67 1008.85 1009.10 1009.59 1009.71 1009.79 1009.02 1008.17 1007.73 1007.87 1008.70 1009.69 1011.29 1011.77 1011.47 1010.92 1008.64 1007.24 1006.88 1006.64 1006.29 1005.79 1005.17 1004.46 1004.16
1017.26 1015.40 1012.46 1011.85 1013.39 1014.22 1014.05 1013.41 1012.70 1012.23 1011.95 1011.61 1011.65 1011.73 1011.85 1012.06 1011.88 1011.01 1010.14 1009.58 1009.35 1009.77 1009.96 1010.44 1010.59 1010.62 1009.51 1008.78 1008.37 1008.76 1009.43 1010.41 1011.48 1012.02 1011.61 1011.17 1009.16 1007.59 1007.31 1006.91 1006.33 1005.84 1005.17 1004.71 1004.20
1017.80 1016.90 1015.10 1014.58 1015.32 1015.70 1015.70 1014.52 1013.79 1013.23 1012.77 1012.78 1012.66 1012.61 1012.95 1012.91 1012.67 1012.33 1011.34 1010.49 1010.24 1010.54 1010.78 1011.53 1011.84 1011.68 1011.00 1010.36 1009.99 1009.90 1009.86 1010.32 1010.98 1011.50 1010.86 1010.37 1008.96 1008.27 1007.60 1006.98 1006.20 1005.80 1005.36 1004.63 1004.36
1018.45 1018.85 1018.37 1017.43 1016.87 1017.14 1016.74 1015.79 1014.88 1014.18 1013.77 1013.55 1013.53 1013.83 1014.40 1014.18 1013.48 1012.53 1011.89 1011.67 1011.17 1011.06 1011.65 1012.11 1012.16 1011.67 1011.02 1010.42 1010.08 1009.83 1009.69 1009.93 1010.16 1010.20 1010.38 1009.42 1009.29 1008.68 1008.41 1007.82 1007.09 1006.41 1005.92 1005.12 1004.58
1019.46 1019.71 1019.11 1018.77 1018.20 1017.76 1016.96 1016.24 1015.67 1015.20 1015.35 1014.74 1014.54 1014.54 1014.75 1014.41 1014.08 1013.13 1012.90 1012.02 1011.43 1011.08 1011.33 1011.60 1011.79 1011.53 1010.92 1010.39 1010.00 1009.57 1009.23 1009.27 1009.31 1009.22 1009.20 1009.09 1009.14 1009.05 1008.50 1008.02 1007.47 1006.90 1006.17 1005.64 1005.14
1019.92 1019.79 1019.72 1019.17 1018.46 1018.06 1017.43 1016.72 1016.44 1016.18 1015.64 1015.29 1015.09 1015.04 1014.33 1013.66 1013.31 1012.78 1012.16 1011.36 1011.13 1010.81 1011.10 1011.60 1012.02 1012.20 1011.37 1010.58 1010.25 1009.55 1008.70 1008.68 1008.73 1008.89 1009.09 1009.32 1009.29 1008.90 1008.55 1008.16 1007.57 1007.08 1006.48 1006.17 1005.74
Wind_Speed
14 13 12 12 13 12 12 12 12 11 11 12 12 12 13 13 13 2 7 12 8 9 1 3 2 2 3 1 3 4 4 3 5 6 9 4 5 2 5 5 6 3 3 8 10
14 14 13 12 12 12 12 13 12 12 11 11 11 12 13 13 3 7 12 10 12 2 4 2 1 3 1 3 1 5 4 8 6 4 8 4 4 7 6 11 7 2 4 6 8
15 14 14 13 13 12 13 12 12 12 11 11 11 12 12 9 4 7 4 14 9 8 0 1 1 2 2 2 3 4 6 4 6 9 9 8 6 4 6 11 8 10 4 8 1
15 14 14 14 14 13 13 12 11 11 11 11 10 11 12 1 2 2 3 13 8 7 2 3 3 3 2 5 4 3 7 6 8 7 4 9 6 3 7 12 11 9 7 5 7
15 15 14 14 13 13 12 12 11 11 11 9 8 8 3 2 10 3 10 10 6 5 3 3 2 1 2 3 1 4 4 4 9 9 8 12 12 13 10 13 10 10 3 3 5
16 15 14 13 13 12 12 12 12 11 10 8 6 5 1 3 5 5 8 7 4 4 3 4 4 5 2 2 2 2 4 6 6 7 4 5 10 4 3 8 9 8 10 6 9
17 16 15 13 12 12 12 12 10 10 8 6 5 3 0 14 3 3 8 4 5 5 5 5 4 1 3 5 1 3 5 7 3 3 5 3 10 9 4 4 9 10 9 11 8
17 16 16 14 13 13 13 12 11 10 7 4 4 2 8 4 2 3 3 5 5 4 3 6 4 2 2 1 7 4 4 2 5 2 7 6 8 7 10 9 11 7 10 10 12
17 16 15 14 13 12 13 13 13 9 5 6 3 2 10 5 3 7 6 6 1 4 7 7 2 1 5 4 6 6 4 4 7 6 4 7 7 5 6 5 11 11 8 10 9
18 16 15 14 14 14 15 13 1 2 3 5 4 3 6 4 4 6 7 7 4 5 3 3 5 2 4 5 4 4 3 3 5 5 4 7 9 7 8 5 9 9 10 7 10
20 18 16 15 14 11 8 2 4 1 2 9 6 5 5 5 1 4 7 7 4 2 3 1 3 6 10 8 7 4 4 9 12 15 5 8 8 10 8 6 8 9 9 8 7
22 20 19 17 14 10 1 0 4 1 9 15 17 11 11 4 4 6 8 7 6 6 3 3 7 11 6 6 7 9 11 13 12 13 6 10 10 10 6 5 5 7 8 9 6
22 21 19 18 17 5 2 6 2 4 3 7 7 6 6 10 8 8 9 6 5 6 6 8 11 4 6 7 6 8 6 8 13 6 5 4 6 6 5 4 7 7 8 8 10
24 21 20 21 1 1 4 2 5 4 4 7 4 6 6 5 6 11 12 7 3 11 5 6 12 10 10 7 6 7 8 10 8 3 8 5 17 5 7 9 6 9 10 11 12
25 24 17 6 4 3 4 5 5 4 4 3 3 4 7 8 2 3 4 3 10 9 8 11 6 8 6 11 7 10 8 9 9 6 1 4 6 6 6 7 13 9 11 12 11
28 23 16 1 2 7 6 6 4 5 5 2 4 5 5 3 3 2 4 3 3 4 5 13 1 7 12 13 7 2 4 4 4 1 6 8 10 7 7 9 7 7 9 10 8
30 29 12 2 4 2 4 4 4 3 5 4 5 2 4 3 5 3 4 5 9 3 7 15 12 5 4 6 7 3 6 4 5 3 12 5 8 8 6 10 11 13 14 10 8
32 29 7 4 3 3 2 4 3 2 4 6 4 7 1 3 2 2 2 2 4 4 2 4 9 6 2 8 9 8 8 5 7 6 12 4 7 5 5 10 11 10 9 8 9
28 4 2 4 7 2 5 2 3 3 4 6 6 3 3 5 2 1 4 5 3 5 4 2 5 4 6 1 3 2 4 6 4 2 7 5 7 6 4 9 8 12 16 15 10
7 4 4 2 6 4 4 3 2 6 7 4 4 5 6 7 4 5 4 0 3 4 4 3 5 8 3 6 5 6 1 3 3 5 8 5 4 6 6 7 8 12 10 11 12
2 3 4 3 2 5 2 3 3 11 10 4 4 2 2 3 8 9 5 6 6 2 3 4 5 5 3 6 6 4 2 3 2 4 4 5 6 6 5 5 6 8 9 7 10
4 3 4 4 4 2 2 8 6 11 9 6 2 2 1 5 6 8 8 3 8 8 6 2 5 6 10 8 8 6 2 5 4 3 3 3 7 7 8 6 6 11 12 15 11
3 4 5 3 2 3 6 6 6 11 9 6 3 4 5 1 6 6 4 9 9 7 5 5 3 4 7 3 3 6 2 4 3 1 6 5 6 3 7 11 10 9 8 9 8
3 5 6 5 3 4 5 5 6 10 8 4 5 3 7 4 4 8 8 7 14 8 12 8 4 6 4 6 3 7 10 6 7 4 5 8 17 14 14 14 13 8 8 7 8
4 1 1 5 4 5 4 3 11 7 5 6 3 6 4 4 7 12 9 9 12 13 8 3 5 9 10 12 9 12 12 12 12 11 9 14 14 8 9 11 7 6 9 12 10
2 3 5 3 3 5 3 2 5 4 5 5 4 8 11 8 9 17 16 13 10 5 8 6 6 5 14 13 14 16 16 13 14 15 11 6 6 1 6 7 8 8 11 10 9
2 2 3 3 4 3 3 5 8 13 7 8 8 14 13 14 13 12 16 19 15 10 7 5 2 1 4 3 4 6 5 2 3 3 1 3 2 9 11 12 11 12 13 8 9
Wind_Direction
329 326 323 323 319 319 319 320 322 320 321 320 320 322 321 323 316 199 229 220 179 236 265 332 233 196 90 235 169 120 74 222 225 201 260 343 334 2 286 267 291 259 164 219 133
329 326 323 320 316 317 317 317 319 322 322 322 320 322 324 330 301 250 241 213 220 204 185 210 110 128 99 203 197 117 148 225 202 225 266 287 283 313 313 312 295 351 311 328 128
332 328 325 320 317 315 316 315 318 318 320 322 320 318 322 332 307 253 229 206 199 181 219 127 104 93 142 132 220 169 202 219 246 245 255 275 285 237 287 289 274 292 260 237 232
335 331 325 320 316 314 311 310 310 311 314 314 315 313 314 260 177 279 95 168 156 149 131 157 98 100 166 193 217 186 232 219 269 253 281 274 282 272 220 250 268 259 271 194 194
340 334 328 321 317 314 310 308 306 305 306 305 306 304 329 333 253 278 125 140 125 122 178 145 81 128 224 223 315 200 259 286 263 273 251 270 265 257 242 244 261 267 7 156 270
339 339 331 326 320 315 310 305 305 302 305 301 290 285 220 274 243 176 140 136 148 173 141 155 196 202 260 291 125 243 274 283 298 289 275 278 278 137 250 238 263 278 277 216 202
342 338 335 331 322 314 306 301 297 300 303 295 260 243 295 235 35 169 149 187 181 180 176 212 188 104 135 319 208 290 318 330 255 245 260 254 299 275 229 205 249 275 271 273 233
343 341 339 332 324 314 306 300 294 290 289 256 204 250 250 250 320 209 163 295 237 241 251 238 221 151 173 296 6 8 73 318 268 248 256 180 262 293 303 326 304 260 245 254 263
342 342 339 334 324 314 303 294 290 280 263 154 133 177 268 310 220 219 164 223 166 222 241 266 118 162 41 69 7 357 255 264 307 200 238 194 272 253 311 331 299 305 260 241 256
340 340 339 333 326 317 310 299 138 120 182 195 258 335 271 218 210 187 199 211 236 298 34 135 50 85 42 82 226 235 244 283 257 277 216 269 268 269 274 297 285 300 296 214 239
338 339 336 332 326 324 340 68 31 52 223 206 199 252 278 284 196 190 161 140 205 142 171 18 98 218 226 203 224 243 224 250 268 271 238 242 270 275 281 300 306 307 296 288 280
333 336 333 325 321 315 288 331 229 54 296 228 237 229 255 29 334 298 130 159 139 207 138 21 240 238 221 210 215 227 247 265 276 261 202 268 271 264 250 240 242 278 291 269 266
328 328 327 323 323 116 200 236 247 277 280 292 195 212 218 158 212 245 164 163 166 193 195 188 243 207 196 269 253 251 218 256 245 264 266 280 280 264 278 252 264 262 252 272 258
323 324 325 325 174 269 262 222 328 182 34 274 223 251 140 187 251 202 182 148 179 204 195 226 250 241 268 232 195 259 211 235 246 217 255 164 275 239 254 262 238 264 271 260 261
322 323 319 309 297 185 233 339 317 64 343 161 170 148 151 164 254 230 142 89 196 199 135 235 205 199 228 248 183 236 239 231 248 235 131 258 288 262 195 264 269 250 253 264 259
322 323 325 107 183 248 328 324 63 46 258 14 135 160 125 244 278 58 162 105 212 213 239 243 217 176 231 259 239 300 313 329 37 108 249 246 234 241 231 233 258 259 266 252 267
323 319 307 222 223 21 292 49 50 167 302 22 0 261 199 208 263 192 206 182 212 190 234 253 254 251 209 267 291 149 69 318 312 296 272 245 264 257 246 264 250 250 264 264 256
325 316 204 221 269 293 53 63 206 253 350 10 319 309 246 32 353 350 26 352 286 172 108 210 291 222 200 192 212 221 166 185 257 246 278 311 252 250 234 262 272 288 268 249 244
322 319 230 264 198 271 84 126 229 2 353 328 332 13 1 14 268 38 207 229 197 170 197 293 257 305 318 262 128 239 212 212 268 269 298 230 300 313 317 328 357 347 357 315 239
315 323 322 97 174 63 77 243 311 47 352 342 39 37 10 326 336 17 310 48 6 104 103 271 296 256 294 359 276 200 181 353 357 287 261 245 248 231 343 342 338 342 340 334 329
321 20 332 19 2 45 122 251 304 45 16 360 18 351 337 15 326 307 249 318 357 110 102 198 190 269 43 220 225 267 123 94 314 180 261 279 255 205 233 266 325 321 317 319 300
327 72 327 1 30 35 24 330 341 4 9 7 315 296 224 312 280 282 264 34 25 21 342 114 204 228 242 238 257 259 225 173 196 215 237 288 259 274 302 297 340 308 312 312 308
360 291 317 54 67 15 334 328 5 18 351 345 292 35 36 346 299 317 316 342 25 16 50 342 346 309 317 341 25 73 91 85 121 136 204 245 260 323 310 294 266 254 266 285 318
21 357 333 33 42 57 6 292 337 336 312 3 308 12 12 314 262 271 296 314 345 339 333 5 217 225 247 254 260 296 284 237 193 226 263 230 284 283 279 275 295 307 323 313 310
26 3 187 334 350 342 308 268 295 308 354 349 353 66 28 277 300 254 252 291 295 294 277 120 233 234 256 278 264 255 252 253 256 243 225 275 262 309 329 317 317 303 319 318 326
61 28 353 303 309 336 298 282 307 340 350 302 256 331 320 271 249 284 286 275 265 219 200 202 257 263 274 269 260 263 261 258 252 255 253 271 283 232 295 310 325 327 336 328 342
322 360 114 303 323 299 247 359 328 327 292 275 321 314 291 274 268 262 267 263 255 247 228 198 196 258 259 287 315 283 247 280 283 41 273 270 326 347 331 322 319 326 322 302 329